Regional Weather Roundup
Issued by NWS Little Rock, AR

Current Version | Previous Version | Text Only | Print | Product List | Glossary On
Versions: 1 2 3 4 5 6 7 8 9 10 11 12 13 14 15 16 17 18 19 20 21 22 23 24 25 26 27 28 29 30 31 32 33 34 35 36 37 38 39 40 41 42 43 44 45 46 47 48 49 50
000
ASUS44 KLZK 250305
RWRLZK

WEATHER ROUNDUP FOR ARKANSAS
NATIONAL WEATHER SERVICE LITTLE ROCK AR
900 PM CST FRI NOV 24 2017

NOTE: "FAIR" INDICATES FEW OR NO CLOUDS BELOW 12,000 FEET WITH NO
SIGNIFICANT WEATHER AND/OR OBSTRUCTIONS TO VISIBILITY.

ARZ001-003-010-029-250400-
NORTHWEST ARKANSAS

CITY           SKY/WX    TMP DP  RH WIND       PRES   REMARKS
FAYETTEVILLE   CLOUDY    59  37  44 S3        29.84R
FORT SMITH     CLOUDY    53  40  61 CALM      29.84R
HARRISON       CLOUDY    63  35  35 S6        29.81R
BENTONVILLE    CLOUDY    61  36  39 SW8       29.84R
ROGERS         CLOUDY    62  36  37 SW12      29.82S
SILOAM SPGS    PTCLDY    60  36  40 S9        29.83S
HIGHFILL       CLOUDY    61  36  39 S12       29.82S
SPRINGDALE     CLEAR     61  36  39 SW10      29.84S
$$

ARZ004-005-016-250400-
NORTH CENTRAL ARKANSAS

CITY           SKY/WX    TMP DP  RH WIND       PRES   REMARKS
BATESVILLE     CLOUDY    61  35  37 VRB7G17   29.83S
FLIPPIN        CLOUDY    63  35  35 S8        29.80R
MTN HOME       CLOUDY    62  35  36 SW7       29.79R
$$

ARZ040-041-250400-
WEST CENTRAL ARKANSAS

CITY           SKY/WX    TMP DP  RH WIND       PRES   REMARKS
MENA           CLEAR     63  37  39 SW5       29.88S
MOUNT IDA      PTCLDY    61  37  41 VRB3      29.86R
$$

ARZ009-017-025-026-028-250400-
NORTHEAST ARKANSAS

CITY           SKY/WX    TMP DP  RH WIND       PRES   REMARKS
JONESBORO      CLOUDY    56  37  49 S10G22    29.84R
NEWPORT        CLOUDY    53  37  54 S12       29.84S
WALNUT RIDGE     N/A    N/A N/A N/A MISG        N/A
BLYTHEVILLE    CLEAR     53  36  52 S12       29.85R
$$

ARZ022-023-033-042-044-250400-
CENTRAL ARKANSAS

CITY           SKY/WX    TMP DP  RH WIND       PRES   REMARKS
LITTLE ROCK    CLOUDY    57  38  48 S7        29.88R
N LITTLE ROCK    N/A     58  38  47 SW6       29.90R
JACKSONVILLE   CLOUDY    58  37  46 S7        29.86S
SEARCY         PTCLDY    57  37  47 S8        29.86R
HOT SPRINGS    PTCLDY    61  37  41 S5        29.89R
RUSSELLVILLE   CLOUDY    59  36  42 SE5       29.84R
CLINTON        FAIR      48  43  81 CALM      29.85R
$$

ARZ036-250400-
EAST ARKANSAS

CITY           SKY/WX    TMP DP  RH WIND       PRES   REMARKS
WEST MEMPHIS   PTCLDY    52  35  52 S13       29.87S
$$

ARZ050-053-066-070-073-250400-
SOUTHWEST ARKANSAS

CITY           SKY/WX    TMP DP  RH WIND       PRES   REMARKS
ARKADELPHIA    FAIR      45  38  76 CALM      29.90R
CAMDEN         CLEAR     46  37  71 CALM      29.91R
TEXARKANA      PTCLDY    56  39  53 S6        29.90R
EL DORADO      CLEAR     49  40  71 S5        29.92R
DE QUEEN       PTCLDY    44  40  85 CALM      29.86R
$$

ARZ056-057-069-250400-
SOUTHEAST ARKANSAS

CITY           SKY/WX    TMP DP  RH WIND       PRES   REMARKS
PINE BLUFF     CLEAR     52  36  54 S5        29.91R
STUTTGART      CLOUDY    54  37  52 S10       29.89R
MONTICELLO     CLEAR     51  35  54 S3        29.92R

$$





USA.gov is the U.S. government's official web portal to all federal, state and local government web resources and services.